Weather in Novomirskiy

Russia / Rostov Oblast     46°49′36″N   39°24′49″E
temp.,
°C
wind,
m/s
gust,
m/s
humid.,
%
clouds,
%
prec.,
mm/h
press.,
hPa
HPBL,
m
24 july, sat
sat2400:00+20n49500 0.0 1010159
03:00+18n49550 0.0 1011183
06:00+18nne36560 0.0 1012120
09:00+25n34390 0.0 1012590
12:00+28n33310 0.0 10122005
15:00+29nnw43280 0.0 10122376
18:00+28nnw44290 0.0 10121640
21:00+23n33450 0.0 101446
25 july, sun
sun2500:00+22ne33430 0.0 101435
03:00+20ne35490 0.0 101574
06:00+20ne47520 0.0 1016147
09:00+27ene56360 0.0 1016562
12:00+31ene65271 0.0 10162569
15:00+32ene652422 0.0 10162989
18:00+31ene562610 0.0 10162721
21:00+25ne494144 0.0 1017162
26 july, mon
mon2600:00+23ne494469 0.0 1017172
03:00+23ne61344100 0.1 1018386
06:00+23ne6134698 0.1 1018342
09:00+27ene6104150 0.4 1018493
12:00+32ene672955 0.0 10171811
15:00+32nne682969 0.0 10161842
18:00+31ne693163 0.0 10161095
21:00+26ne613424 0.0 1016330
27 july, tue
tue2700:00+22nne5115585 0.1 1017225
03:00+24ne6114653 0.1 1017302
06:00+23ene511489 0.0 1018315
09:00+28e5732100 0.0 1018557
12:00+27ne463693 0.0 1018353
15:00+33e66215 0.0 10172737
18:00+32ese552210 0.0 10172913
21:00+24sse383467 0.0 1019137
28 july, wed
wed2800:00+22sse33386 0.0 101950
03:00+20ssw22477 0.0 101926
06:00+21ssw234982 0.0 1019113
09:00+26sw323811 0.0 1019645
12:00+31nne12271 0.0 10181774
15:00+32n43252 0.0 10163070
18:00+31nnw43252 0.0 10151624
21:00+25n33440 0.0 101638